TimeCDT,TemperatureF,Dew PointF,Humidity,Sea Level PressureIn,VisibilityMPH,Wind Direction,Wind SpeedMPH,Gust SpeedMPH,PrecipitationIn,Events,Conditions,WindDirDegrees,DateUTC
12:53 AM,19.9,18.0,92,30.31,10.0,Calm,Calm,-,N/A,,Clear,0,2014-03-29 05:53:00
1:53 AM,19.0,18.0,96,30.31,10.0,WSW,5.8,-,N/A,,Clear,250,2014-03-29 06:53:00
2:53 AM,19.0,16.0,88,30.30,10.0,Calm,Calm,-,N/A,,Clear,0,2014-03-29 07:53:00
3:53 AM,18.0,17.1,96,30.28,10.0,SSW,3.5,-,N/A,,Clear,210,2014-03-29 08:53:00
4:53 AM,18.0,16.0,92,30.27,10.0,WSW,3.5,-,N/A,,Clear,240,2014-03-29 09:53:00
5:53 AM,18.0,16.0,92,30.29,10.0,SW,4.6,-,N/A,,Clear,230,2014-03-29 10:53:00
6:53 AM,19.9,18.0,92,30.29,10.0,SW,3.5,-,N/A,,Clear,220,2014-03-29 11:53:00
7:53 AM,19.9,19.0,96,30.29,10.0,SSE,4.6,-,N/A,,Clear,160,2014-03-29 12:53:00
8:53 AM,25.0,23.0,92,30.28,10.0,SSW,6.9,-,N/A,,Clear,210,2014-03-29 13:53:00
9:53 AM,30.9,27.0,85,30.26,10.0,SSW,9.2,-,N/A,,Clear,200,2014-03-29 14:53:00
10:53 AM,39.0,30.0,70,30.24,10.0,SSW,16.1,24.2,N/A,,Clear,200,2014-03-29 15:53:00
11:53 AM,45.0,32.0,60,30.22,10.0,South,21.9,29.9,N/A,,Clear,190,2014-03-29 16:53:00
12:53 PM,50.0,32.0,50,30.17,10.0,SSW,19.6,28.8,N/A,,Clear,200,2014-03-29 17:53:00
1:53 PM,55.0,34.0,45,30.11,10.0,SSW,20.7,27.6,N/A,,Clear,200,2014-03-29 18:53:00
2:53 PM,57.9,33.1,39,30.07,10.0,SSW,21.9,34.5,N/A,,Clear,210,2014-03-29 19:53:00
3:53 PM,64.0,30.0,28,30.01,10.0,South,25.3,31.1,N/A,,Clear,190,2014-03-29 20:53:00
4:53 PM,64.0,25.0,23,29.98,10.0,SSW,23.0,31.1,N/A,,Clear,200,2014-03-29 21:53:00
5:53 PM,64.9,23.0,20,29.95,10.0,SSW,18.4,32.2,N/A,,Clear,210,2014-03-29 22:53:00
6:53 PM,64.0,23.0,21,29.94,10.0,SSW,18.4,29.9,N/A,,Clear,200,2014-03-29 23:53:00
7:53 PM,57.9,26.1,30,29.94,10.0,South,15.0,-,N/A,,Unknown,190,2014-03-30 00:53:00
8:53 PM,55.9,24.1,29,29.94,10.0,SSE,12.7,-,N/A,,Clear,160,2014-03-30 01:53:00
9:53 PM,52.0,27.0,38,29.95,10.0,SSE,12.7,-,N/A,,Unknown,160,2014-03-30 02:53:00
10:53 PM,51.1,28.0,41,29.94,10.0,South,13.8,23.0,N/A,,Clear,170,2014-03-30 03:53:00
11:53 PM,52.0,27.0,38,29.91,10.0,South,20.7,-,N/A,,Clear,180,2014-03-30 04:53:00